Juliana Airport, Sint Maarten

6:13 AM AST on February 21, 2018 (GMT -0400)
Princess Juliana International

Weather History for TNCM - August, 2013

Change the Weather History Date:

Saturday, August 31, 2013

  Actual Average Record
Temperature  
Mean Temperature 84 °F -  
Max Temperature 89 °F 87 °F 91 °F (2001)
Min Temperature 78 °F 78 °F 77 °F (2006)
Cooling Degree Days 18    
Growing Degree Days 34 (Base 50)    
Moisture  
Dew Point 76 °F    
Average Humidity 75    
Maximum Humidity 89    
Minimum Humidity 60    
Precipitation  
Precipitation 0.24 in 0.17 in - ()
Sea Level Pressure  
Sea Level Pressure 29.97 in    
Wind  
Wind Speed 9 mph ()    
Max Wind Speed 15 mph    
Max Gust Speed -    
Visibility 7.5 miles    
Events Rain    
Averages and records for this station are not official NWS values.
T = Trace of Precipitation, MM = Missing Value Source: Averaged Metar Reports

Daily Weather History Graph

Daily Weather History Graph

Search for Another Location

Airport or City:

Trip Planner

Search our weather history database for the weather conditions in past years. The results will help you decide how hot, cold, wet, or windy it might be!

Date:

Astronomy

Aug. 31, 2013 Rise Set
Actual Time 5:58 AM AST 6:27 PM AST
Civil Twilight 5:35 AM AST 6:49 PM AST
Nautical Twilight 5:10 AM AST 7:14 PM AST
Astronomical Twilight 4:44 AM AST 7:40 PM AST
Moon 1:46 AM AST (8/31) 3:00 PM AST (8/31)
Length of Visible Light 13h 13m
Length of Day
12h 29m
Waning Crescent, 21% of the Moon is Illuminated
Aug 31
Waning Crescent
Sep 5
New
Sep 12
First Quarter
Sep 19
Full
Sep 26
Last Quarter

Hourly Weather History & Observations

Time (AST) Temp. Heat Index Dew Point Humidity Pressure Visibility Wind Dir Wind Speed Gust Speed Precip Events Conditions
12:00 AM 84.2 °F 92.3 °F 75.2 °F 74% 30.01 in 6.2 mi East 10.4 mph - N/A   Partly Cloudy
1:00 AM 84.2 °F 92.3 °F 75.2 °F 74% 29.98 in 6.2 mi East 8.1 mph - N/A   Scattered Clouds
2:00 AM 82 °F - 76 °F 78% 29.96 in 9 mi ENE 8.1 mph - - Rain Light Rain Showers
2:00 AM 82.4 °F 89.5 °F 75.2 °F 79% 29.95 in 6.2 mi ENE 8.1 mph - N/A Rain Light Rain Showers
3:00 AM 82.4 °F 89.5 °F 75.2 °F 79% 29.95 in 6.2 mi East 9.2 mph - N/A   Partly Cloudy
4:00 AM 82.4 °F 89.5 °F 75.2 °F 79% 29.95 in 6.2 mi ENE 6.9 mph - N/A   Partly Cloudy
5:00 AM 79 °F - 74 °F 81% 29.96 in 19 mi NNE 6.9 mph - -   Partly Cloudy
5:00 AM 78.8 °F - 73.4 °F 83% 29.95 in 6.2 mi NNE 6.9 mph - N/A   Scattered Clouds
6:00 AM 80.6 °F 86.2 °F 75.2 °F 84% 29.98 in 4.3 mi NE 6.9 mph - N/A Rain Rain Showers
7:00 AM 80.6 °F 87.1 °F 77.0 °F 89% 29.98 in 6.2 mi Variable 1.2 mph - N/A   Scattered Clouds
8:00 AM 80 °F - 76 °F 83% 29.99 in 16 mi East 10.4 mph - -   Partly Cloudy
8:00 AM 82.4 °F 90.9 °F 77.0 °F 84% 29.98 in 6.2 mi ENE 10.4 mph - N/A   Partly Cloudy
9:00 AM 84.2 °F 94.1 °F 77.0 °F 79% 29.98 in 6.2 mi East 11.5 mph - N/A   Partly Cloudy
10:00 AM 84.2 °F 94.1 °F 77.0 °F 79% 30.01 in 6.2 mi East 12.7 mph - N/A   Partly Cloudy
11:00 AM 86 °F - 75 °F 63% 30.01 in 19 mi East 13.8 mph - -   Partly Cloudy
11:00 AM 86.0 °F 95.1 °F 75.2 °F 70% 29.98 in 6.2 mi East 13.8 mph - N/A   Partly Cloudy
12:00 PM 87.8 °F 97.6 °F 75.2 °F 66% 29.98 in 6.2 mi East 15.0 mph - N/A   Scattered Clouds
1:00 PM 87.8 °F 97.6 °F 75.2 °F 66% 29.95 in 6.2 mi East 12.7 mph - N/A   Partly Cloudy
2:00 PM 88 °F - 76 °F 60% 29.96 in 25 mi East 13.8 mph - -   Partly Cloudy
2:00 PM 87.8 °F 97.6 °F 75.2 °F 66% 29.95 in 6.2 mi East 13.8 mph - N/A   Scattered Clouds
3:00 PM 87.8 °F 97.6 °F 75.2 °F 66% 29.92 in 6.2 mi East 11.5 mph - N/A   Scattered Clouds
4:00 PM 87.8 °F 97.6 °F 75.2 °F 66% 29.92 in 6.2 mi East 11.5 mph - N/A   Scattered Clouds
5:00 PM 86.0 °F 95.1 °F 75.2 °F 70% 29.92 in 6.2 mi East 10.4 mph - N/A   Scattered Clouds
6:00 PM 86.0 °F 95.1 °F 75.2 °F 70% 29.95 in 6.2 mi ENE 12.7 mph - N/A   Partly Cloudy
7:00 PM 84.2 °F 92.3 °F 75.2 °F 74% 29.95 in 6.2 mi ENE 9.2 mph - N/A   Partly Cloudy
8:00 PM 84 °F - 75 °F 68% 29.98 in 25 mi East 9.2 mph - -   Scattered Clouds
8:00 PM 84.2 °F 92.3 °F 75.2 °F 74% 29.98 in 6.2 mi ENE 9.2 mph - N/A   Partly Cloudy
9:00 PM 84.2 °F 92.3 °F 75.2 °F 74% 29.98 in 6.2 mi ENE 11.5 mph - N/A   Scattered Clouds
10:00 PM 84.2 °F 94.1 °F 77.0 °F 79% 30.01 in 6.2 mi ENE 10.4 mph - N/A   Partly Cloudy
11:00 PM 84.2 °F 94.1 °F 77.0 °F 79% 30.01 in 5.0 mi ENE 9.2 mph - N/A Rain Light Rain Showers